Weather observations for the past three days for
Alva, Alva Regional Airport
Metric (Imperial)
Date Time (cdt) Wind (kph) Vis. (km) Weather Sky Cond. Temperature (ºC) Relative Humidity Wind Chill (°C) Heat Index (°C) Pressure Precipitation (cm)
Air Dwpt 6 hour altimeter (cm) sea level (mb) 1 hr 3 hr 6 hr
Max. Min.
05 23:35 S 13 16.09 Fair CLR 30 17 46% 30 75.97 0.0
05 23:15 S 15 16.09 Fair CLR 31 17 43% 31 75.97 0.0
05 22:55 SE 15 16.09 Fair CLR 31 17 43% 31 76 0.0
05 22:35 SE 17 16.09 Fair CLR 32 17 41% 32 76 0.0
05 22:15 SE 17 16.09 Fair CLR 32 16 38% 32 75.97 0.0
05 21:55 S 19 16.09 Fair CLR 32 16 38% 32 75.95 0.0
05 21:35 SE 17 16.09 Fair CLR 33 16 36% 33 75.92 0.0
05 21:15 SE 19 16.09 Fair CLR 33 17 38% 33 75.9 0.0
05 20:55 SE 19 16.09 Fair CLR 33 16 36% 33 75.87 0.0
05 20:35 SE 17 16.09 Fair CLR 34 16 34% 34 75.87 0.0
05 20:15 SE 17 16.09 Fair CLR 34 16 34% 34 75.87 0.0
05 19:55 SE 19 16.09 Fair CLR 35 16 32% 35 75.87 0.0
05 19:35 SE 22 16.09 Fair CLR 36 16 30% 36 75.87 0.0
05 19:15 SE 22 16.09 Fair CLR 37 16 29% 37 75.87 0.0
05 18:55 S 24 16.09 Fair CLR 37 17 31% 38 75.84 0.0
05 18:35 SE 30 G 39 16.09 A Few Clouds FEW095 38 17 29% 39 75.84 0.0
05 18:15 SE 22 G 31 16.09 Partly Cloudy SCT090 38 17 29% 39 75.82 0.0
05 17:55 SE 19 G 33 16.09 Fair CLR 38 17 29% 39 75.82 0.0
05 17:35 S 22 16.09 A Few Clouds FEW090 39 17 27% 40 75.79 0.0
05 17:15 S 20 G 30 16.09 Fair CLR 39 17 27% 40 75.79 0.0
05 16:55 SE 17 G 26 16.09 Fair CLR 38 17 29% 39 75.79 0.0
05 16:35 SE 20 16.09 A Few Clouds FEW085 39 18 29% 41 75.82 0.0
05 16:15 S 26 G 37 16.09 Partly Cloudy SCT085 39 18 29% 41 75.84 0.0
05 15:55 S 22 G 31 16.09 A Few Clouds FEW085 38 18 31% 40 75.87 0.0
05 15:35 S 15 G 30 16.09 Fair CLR 38 18 31% 40 75.87 0.0
05 15:15 S 26 G 39 16.09 A Few Clouds FEW080 39 18 29% 41 75.9 0.0
05 14:55 E 17 G 28 16.09 A Few Clouds FEW080 37 18 33% 39 75.92 0.0
05 12:55 SE 20 G 31 16.09 Fair CLR 38 18 31% 40 76.02 0.0
05 12:35 Vrbl 9 G 31 16.09 A Few Clouds FEW070 37 19 35% 39 76.05 0.0
05 12:15 S 15 G 37 16.09 Fair CLR 37 19 35% 39 76.05 0.0
05 11:55 S 20 16.09 Fair CLR 37 19 35% 39 76.05 0.0
05 11:35 S 26 16.09 Fair CLR 36 19 37% 38 76.02 0.0
05 11:15 S 20 G 33 16.09 Fair CLR 36 19 37% 38 76.05 0.0
05 10:55 SW 22 16.09 Fair CLR 35 20 41% 38 76.05 0.0
05 10:35 S 24 16.09 Fair CLR 34 20 44% 36 76.05 0.0
05 10:15 S 22 16.09 Fair CLR 33 20 46% 35 76.05 0.0
05 09:55 S 22 16.09 Fair CLR 32 20 49% 34 76.05 0.0
05 09:35 S 26 16.09 Fair CLR 31 20 52% 33 76.05 0.0
05 09:15 S 26 16.09 Fair CLR 31 20 52% 33 76.02 0.0
05 08:55 S 20 16.09 Fair CLR 29 20 58% 31 76.02 0.0
05 08:35 S 15 12.87 Fair CLR 28 20 62% 30 76.02 0.0
05 08:15 S 15 16.09 Fair CLR 27 20 66% 29 76 0.0
05 07:55 S 15 16.09 Fair CLR 26 19 65% 27 75.97 0.0
05 07:35 S 11 16.09 Fair CLR 25 19 69% 26 75.97 0.0
05 07:15 S 13 16.09 Fair CLR 25 19 69% 26 75.97 0.0
05 06:55 S 15 16.09 Fair CLR 25 19 69% 26 75.95 0.0
05 06:35 S 17 16.09 Fair CLR 26 19 65% 27 75.97 0.0
05 06:15 S 15 16.09 Fair CLR 26 19 65% 27 75.97 0.0
05 05:55 S 17 16.09 Fair CLR 26 19 65% 27 75.97 0.0
05 05:35 S 19 16.09 Fair CLR 26 19 65% 27 75.97 0.0
05 05:15 S 17 16.09 Fair CLR 26 19 65% 27 75.97 0.0
05 04:55 S 15 16.09 Fair CLR 27 19 62% 28 75.97 0.0
05 04:35 S 17 16.09 Fair CLR 27 19 62% 28 75.97 0.0
05 04:15 S 17 16.09 Fair CLR 27 19 62% 28 75.97 0.0
05 03:55 S 15 16.09 Fair CLR 27 19 62% 28 76 0.0
05 03:35 S 17 16.09 Fair CLR 27 19 62% 28 76 0.0
05 03:15 S 17 16.09 Fair CLR 27 19 62% 28 76 0.0
05 02:55 S 15 16.09 Fair CLR 28 19 58% 29 76 0.0
05 02:35 S 19 16.09 Fair CLR 29 19 55% 30 76 0.0
05 02:15 S 19 16.09 Fair CLR 29 19 55% 30 76 0.0
05 01:55 S 19 16.09 Fair CLR 30 19 52% 31 76 0.0
05 01:35 S 24 16.09 Fair CLR 30 19 52% 31 75.97 0.0
05 01:15 S 19 16.09 Fair CLR 30 19 52% 31 75.95 0.0
05 00:55 S 19 16.09 Fair CLR 30 19 52% 31 75.95 0.0
05 00:35 S 20 16.09 Fair CLR 30 19 52% 31 75.92 0.0
05 00:15 S 19 16.09 Fair CLR 30 19 52% 31 75.95 0.0
04 23:55 S 20 16.09 Fair CLR 31 19 49% 32 75.95 0.0
04 23:35 S 19 16.09 Fair CLR 31 19 49% 32 75.95 0.0
04 23:15 SE 19 16.09 Fair CLR 31 19 49% 32 75.97 0.0
04 22:35 SE 15 16.09 Fair CLR 31 19 49% 32 75.97 0.0
04 22:15 SE 17 16.09 Fair CLR 32 18 43% 33 75.95 0.0
04 21:55 SE 15 16.09 Fair CLR 32 18 43% 33 75.95 0.0
04 21:35 SE 17 16.09 Fair CLR 33 18 41% 34 75.9 0.0
04 21:15 SE 19 16.09 Fair CLR 33 18 41% 34 75.84 0.0
04 20:55 SE 17 16.09 Fair CLR 34 18 39% 35 75.82 0.0
04 20:35 SE 15 16.09 Fair CLR 34 18 39% 35 75.82 0.0
04 20:15 SE 19 16.09 Fair CLR 35 18 36% 36 75.79 0.0
04 19:55 SE 20 16.09 Fair CLR 36 18 34% 37 75.77 0.0
04 19:35 SE 26 16.09 Fair CLR 36 18 34% 37 75.77 0.0
04 19:15 SE 24 16.09 Fair CLR 37 17 31% 38 75.77 0.0
04 18:55 SE 22 16.09 Fair CLR 38 18 31% 40 75.77 0.0
04 18:35 SE 24 16.09 Fair CLR 38 18 31% 40 75.77 0.0
04 18:15 SE 22 G 35 16.09 Fair CLR 38 18 31% 40 75.74 0.0
04 17:55 S 20 16.09 Fair CLR 38 18 31% 40 75.77 0.0
04 17:35 SE 22 G 35 16.09 Fair CLR 38 18 31% 40 75.77 0.0
04 17:15 S 15 G 26 16.09 Fair CLR 38 18 31% 40 75.77 0.0
04 16:55 SE 24 16.09 Fair CLR 39 19 31% 42 75.77 0.0
04 16:35 SE 28 16.09 Fair CLR 38 19 33% 40 75.77 0.0
04 16:15 SE 24 G 35 16.09 Fair CLR 38 19 33% 40 75.79 0.0
04 15:55 SE 15 G 28 16.09 Fair CLR 38 19 33% 40 75.79 0.0
04 15:35 SE 20 G 31 16.09 Fair CLR 38 20 35% 41 75.82 0.0
04 15:15 SE 19 G 31 16.09 Fair CLR 38 20 35% 41 75.84 0.0
04 14:55 S 24 G 37 16.09 Fair CLR 37 20 37% 40 75.87 0.0
04 14:35 SE 19 16.09 Fair CLR 37 21 39% 41 75.87 0.0
04 14:15 SE 15 G 30 16.09 Fair CLR 37 21 39% 41 75.87 0.0
04 13:55 S 17 G 30 16.09 Fair CLR 37 21 39% 41 75.9 0.0
04 13:35 S 13 G 31 16.09 Fair CLR 36 22 44% 41 75.9 0.0
04 13:15 Vrbl 9 G 24 16.09 Fair CLR 36 22 44% 41 75.92 0.0
04 12:55 S 15 16.09 Fair CLR 35 22 47% 39 75.95 0.0
04 12:35 SE 19 16.09 Fair CLR 34 22 50% 38 75.97 0.0
04 12:15 S 13 G 26 16.09 Fair CLR 34 22 50% 38 76 0.0
04 11:55 S 17 16.09 Fair CLR 33 22 52% 37 76 0.0
04 11:35 S 17 16.09 Fair CLR 32 22 55% 36 76.02 0.0
04 11:15 S 13 G 24 16.09 Fair CLR 31 22 59% 35 76.02 0.0
04 10:55 S 20 16.09 Fair CLR 30 22 62% 33 76.02 0.0
04 10:35 S 19 16.09 Fair CLR 30 22 62% 33 76 0.0
04 10:15 S 20 16.09 Fair CLR 29 22 66% 32 76 0.0
04 09:55 S 19 16.09 Fair CLR 28 22 70% 31 76.02 0.0
04 09:35 S 20 16.09 Fair CLR 28 22 70% 31 76.02 0.0
04 09:15 S 20 16.09 Fair CLR 27 22 74% 29 76.02 0.0
04 08:55 S 20 16.09 Fair CLR 26 22 79% 28 76.02 0.0
04 08:35 S 19 16.09 Fair CLR 26 21 74% 27 76 0.0
04 08:15 S 19 16.09 Fair CLR 25 22 83% 26 75.97 0.0
04 07:55 SE 17 16.09 Fair CLR 24 21 83% 24 75.97 0.0
04 07:35 SE 17 16.09 Fair CLR 24 21 83% 24 75.95 0.0
04 07:15 SE 15 14.48 Fair CLR 23 21 89% 75.95 0.0
04 06:55 SE 15 16.09 Fair CLR 23 21 89% 75.92 0.0
04 06:35 SE 11 14.48 Fair CLR 24 21 83% 24 75.92 0.0
04 06:15 SE 13 6.44 Fair with Haze CLR 24 21 83% 24 75.92 0.0
04 05:55 SE 11 16.09 Fair CLR 24 21 83% 24 75.92 0.0
04 05:35 SE 11 16.09 Fair CLR 24 21 83% 24 75.92 0.0
04 05:15 SE 9 16.09 Fair CLR 24 21 83% 24 75.92 0.0
04 04:55 S 7 16.09 Fair CLR 25 22 83% 26 75.92 0.0
04 04:35 S 15 16.09 Fair CLR 25 21 79% 26 75.9 0.0
04 04:15 S 17 16.09 Fair CLR 26 22 79% 28 75.9 0.0
04 03:55 S 17 16.09 Fair CLR 26 22 79% 28 75.9 0.0
04 03:35 S 17 16.09 Fair CLR 26 22 79% 28 75.9 0.0
04 03:15 S 19 16.09 Fair CLR 26 22 79% 28 75.9 0.0
04 02:55 S 19 16.09 Fair CLR 27 22 74% 29 75.9 0.0
04 02:35 S 24 16.09 Fair CLR 27 22 74% 29 75.9 0.0
04 02:15 S 22 16.09 Fair CLR 27 21 70% 29 75.9 0.0
04 01:55 S 22 16.09 Fair CLR 27 21 70% 29 75.9 0.0
04 01:35 S 24 16.09 Fair CLR 28 21 66% 30 75.92 0.0
04 01:15 S 26 G 35 16.09 Fair CLR 28 21 66% 30 75.92 0.0
04 00:55 S 28 G 39 16.09 Fair CLR 28 21 66% 30 75.9 0.0
04 00:35 S 33 16.09 Fair and Breezy CLR 29 21 62% 31 75.9 0.0
04 00:15 S 28 G 39 16.09 Fair CLR 29 21 62% 31 75.87 0.0
03 23:55 S 33 16.09 Fair and Breezy CLR 30 21 59% 33 75.84 0.0
03 23:15 S 30 G 46 16.09 Fair CLR 30 20 55% 32 75.84 0.0
03 22:55 S 31 G 48 16.09 Fair CLR 31 20 52% 33 75.84 0.0
03 22:35 S 33 16.09 Fair and Breezy CLR 31 20 52% 33 75.84 0.0
03 22:15 S 35 16.09 Fair and Breezy CLR 31 20 52% 33 75.82 0.0
03 21:55 S 35 16.09 Fair and Breezy CLR 32 20 49% 34 75.79 0.0
03 21:35 S 33 G 44 16.09 Fair and Breezy CLR 32 19 46% 33 75.79 0.0
03 21:15 S 31 16.09 Fair CLR 33 19 44% 35 75.77 0.0
03 20:55 SE 35 16.09 Fair and Breezy CLR 33 19 44% 35 75.77 0.0
03 20:35 SE 26 G 37 16.09 Fair CLR 33 19 44% 35 75.74 0.0
03 20:15 SE 30 G 43 16.09 Fair CLR 34 19 41% 36 75.72 0.0
03 19:55 SE 39 16.09 Fair and Breezy CLR 35 18 36% 36 75.69 0.0
03 19:35 SE 31 G 44 16.09 Fair CLR 36 18 34% 37 75.69 0.0
03 19:15 SE 37 G 48 16.09 Fair and Breezy CLR 37 18 33% 39 75.67 0.0
03 18:55 SE 35 G 46 16.09 Fair and Breezy CLR 38 18 31% 40 75.67 0.0
03 18:35 SE 35 16.09 Fair and Breezy CLR 38 18 31% 40 75.64 0.0
03 18:15 SE 28 G 39 16.09 Fair CLR 39 18 29% 41 75.64 0.0
03 17:55 S 35 16.09 Fair and Breezy CLR 39 18 29% 41 75.64 0.0
03 17:35 SE 31 16.09 Fair CLR 39 18 29% 41 75.64 0.0
03 17:15 SE 28 G 39 16.09 Fair CLR 39 18 29% 41 75.64 0.0
03 16:55 SE 24 16.09 Fair CLR 39 18 29% 41 75.64 0.0
03 16:35 SE 30 G 41 16.09 Fair CLR 39 18 29% 41 75.67 0.0
03 16:15 S 30 G 52 16.09 Fair CLR 40 18 28% 42 75.67 0.0
03 15:55 SE 19 G 31 16.09 Fair CLR 40 17 26% 41 75.69 0.0
03 15:35 S 19 G 31 16.09 Fair CLR 40 18 28% 42 75.72 0.0
03 15:15 S 20 G 39 16.09 Fair CLR 39 18 29% 41 75.72 0.0
03 14:55 S 26 G 37 16.09 Fair CLR 39 18 29% 41 75.74 0.0
03 14:35 S 26 G 37 16.09 Fair CLR 39 19 31% 42 75.77 0.0
03 14:15 S 20 G 31 16.09 Fair CLR 38 19 33% 40 75.77 0.0
03 13:55 S 17 G 30 16.09 Fair CLR 38 19 33% 40 75.79 0.0
03 13:35 S 24 G 39 16.09 Fair CLR 38 19 33% 40 75.82 0.0
03 13:15 S 24 G 37 16.09 Fair CLR 37 20 37% 40 75.84 0.0
03 12:55 S 24 G 43 16.09 Fair CLR 37 20 37% 40 75.87 0.0
03 12:35 S 26 G 39 16.09 Fair CLR 36 20 39% 39 75.87 0.0
03 12:15 S 24 G 39 16.09 Fair CLR 36 20 39% 39 75.92 0.0
03 11:55 S 24 G 35 16.09 Fair CLR 35 20 41% 38 75.92 0.0
03 11:35 S 28 16.09 Fair CLR 35 20 41% 38 75.95 0.0
03 11:15 S 22 G 37 16.09 Fair CLR 34 20 44% 36 75.95 0.0
03 10:55 S 22 G 33 16.09 Fair CLR 33 20 46% 35 75.95 0.0
03 10:35 S 19 G 33 16.09 Fair CLR 32 20 49% 34 75.97 0.0
03 10:15 S 26 16.09 Fair CLR 31 20 52% 33 75.97 0.0
03 09:55 S 24 16.09 Fair CLR 31 20 52% 33 75.97 0.0
03 09:35 S 28 16.09 Fair CLR 30 20 55% 32 76 0.0
03 09:15 S 24 16.09 Fair CLR 29 20 58% 31 76 0.0
03 08:55 S 20 16.09 Fair CLR 29 20 58% 31 76 0.0
03 08:35 S 19 16.09 Fair CLR 28 20 62% 30 76 0.0
03 08:15 S 20 16.09 Fair CLR 27 20 66% 29 75.97 0.0
03 07:55 S 17 16.09 Partly Cloudy SCT120 27 20 66% 29 75.97 0.0
03 07:35 S 17 16.09 Partly Cloudy SCT120 26 20 70% 27 75.95 0.0
03 07:15 S 15 16.09 Fair CLR 26 19 65% 27 75.95 0.0
03 06:55 S 19 16.09 A Few Clouds FEW120 27 19 62% 28 75.95 0.0
03 06:35 S 19 16.09 A Few Clouds FEW120 28 19 58% 29 75.95 0.0
03 06:15 S 19 G 28 16.09 A Few Clouds FEW120 28 19 58% 29 75.95 0.0
03 05:55 S 24 16.09 Partly Cloudy SCT120 28 19 58% 29 75.95 0.0
03 05:35 S 22 16.09 A Few Clouds FEW120 28 19 58% 29 75.95 0.0
03 05:15 S 22 16.09 Partly Cloudy SCT120 28 19 58% 29 75.95 0.0
03 04:55 S 22 16.09 Mostly Cloudy BKN120 28 19 58% 29 75.95 0.0
03 04:35 S 24 16.09 A Few Clouds FEW120 28 19 58% 29 75.95 0.0
03 04:15 S 26 16.09 Fair CLR 29 19 55% 30 75.95 0.0
03 03:55 S 26 16.09 Fair CLR 29 18 51% 30 75.95 0.0
03 03:35 S 24 16.09 Fair CLR 29 18 51% 30 75.92 0.0
03 03:15 S 24 16.09 Fair CLR 29 18 51% 30 75.92 0.0
03 02:55 S 24 G 35 16.09 Fair CLR 29 18 51% 30 75.92 0.0
03 02:35 S 20 16.09 Fair CLR 29 18 51% 30 75.92 0.0
03 02:15 S 22 16.09 Fair CLR 29 17 48% 29 75.92 0.0
03 01:55 S 24 16.09 Fair CLR 30 17 46% 30 75.92 0.0
03 01:35 S 26 16.09 Fair CLR 30 17 46% 30 75.92 0.0
03 01:15 S 24 16.09 Fair CLR 30 17 46% 30 75.92 0.0
03 00:55 S 26 16.09 Fair CLR 30 17 46% 30 75.92 0.0
03 00:35 S 22 16.09 Fair CLR 31 17 43% 31 75.9 0.0
03 00:15 S 24 G 35 16.09 Fair CLR 31 17 43% 31 75.9 0.0
02 23:55 S 30 16.09 Fair CLR 31 17 43% 31 75.87 0.0
Date Time (cdt) Wind (kph) Vis. (km) Weather Sky Cond. Air Dwpt Max. Min. Relative Humidity Wind Chill (°C) Heat Index (°C) altimeter (cm) sea level (mb) 1 hr 3 hr 6 hr
6 hour
Temperature (ºC) Pressure Precipitation (cm)